International Skating Union - Official Site

Essent ISU World Cup Heerenveen
March 2-4, 2012

Draw | Lap Times | Index | World Cup

Referee: Jacques  DE KONING  (NED)
Starter: Roman  DANILOV  (RUS)
StartTime: EndTime: Air Temp: Ice Temp: Humidity:
17:13 18:26
Result 5000m Ladies Division A
Rankings as of Mar 4 2012 4:31PM
Rank: No.: Name: Nation: Time: Behind: Points:
1 24 Martina  SÁBLIKOVÁ CZE CZE 6:52.50200m - 20.73 - (20.7)
600m - 52.79 - (32.0)
1000m - 1:25.20 - (32.4)
1400m - 1:58.01 - (32.8)
1800m - 2:30.63 - (32.6)
2200m - 3:03.25 - (32.6)
2600m - 3:35.90 - (32.6)
3000m - 4:08.76 - (32.8)
3400m - 4:41.48 - (32.7)
3800m - 5:14.09 - (32.6)
4200m - 5:46.93 - (32.8)
4600m - 6:20.00 - (33.0)
5000m - 6:52.50 - (32.5)
100
2 27 Stephanie  BECKERT GER GER 6:53.36200m - 21.23 - (21.2)
600m - 53.68 - (32.4)
1000m - 1:26.21 - (32.5)
1400m - 1:58.69 - (32.4)
1800m - 2:31.07 - (32.3)
2200m - 3:03.59 - (32.5)
2600m - 3:36.23 - (32.6)
3000m - 4:08.97 - (32.7)
3400m - 4:41.73 - (32.7)
3800m - 5:14.45 - (32.7)
4200m - 5:47.49 - (33.0)
4600m - 6:20.61 - (33.1)
5000m - 6:53.36 - (32.7)
0.86 80
3 34 Claudia  PECHSTEIN GER GER 7:05.37200m - 20.77 - (20.7)
600m - 53.13 - (32.3)
1000m - 1:25.85 - (32.7)
1400m - 1:58.41 - (32.5)
1800m - 2:31.24 - (32.8)
2200m - 3:04.10 - (32.8)
2600m - 3:37.62 - (33.5)
3000m - 4:11.61 - (33.9)
3400m - 4:46.15 - (34.5)
3800m - 5:21.01 - (34.8)
4200m - 5:56.19 - (35.1)
4600m - 6:31.13 - (34.9)
5000m - 7:05.37 - (34.2)
12.87 70
4 39 Masako  HOZUMI JPN JPN 7:10.61200m - 20.75 - (20.7)
600m - 52.56 - (31.8)
1000m - 1:24.94 - (32.3)
1400m - 1:57.68 - (32.7)
1800m - 2:30.98 - (33.3)
2200m - 3:04.75 - (33.7)
2600m - 3:38.65 - (33.9)
3000m - 4:12.92 - (34.2)
3400m - 4:47.72 - (34.8)
3800m - 5:22.91 - (35.1)
4200m - 5:58.60 - (35.7)
4600m - 6:34.45 - (35.8)
5000m - 7:10.61 - (36.1)
18.11 60
5 79 Olga  GRAF RUS RUS 7:11.61200m - 21.29 - (21.2)
600m - 54.04 - (32.7)
1000m - 1:27.43 - (33.3)
1400m - 2:01.10 - (33.6)
1800m - 2:34.83 - (33.7)
2200m - 3:08.95 - (34.1)
2600m - 3:42.85 - (33.9)
3000m - 4:17.10 - (34.2)
3400m - 4:51.65 - (34.5)
3800m - 5:26.07 - (34.4)
4200m - 6:01.08 - (35.0)
4600m - 6:36.24 - (35.1)
5000m - 7:11.61 - (35.3)
19.11 50
6 40 Eriko  ISHINO JPN JPN 7:14.71200m - 20.96 - (20.9)
600m - 53.79 - (32.8)
1000m - 1:27.32 - (33.5)
1400m - 2:00.97 - (33.6)
1800m - 2:34.98 - (34.0)
2200m - 3:09.23 - (34.2)
2600m - 3:43.68 - (34.4)
3000m - 4:18.25 - (34.5)
3400m - 4:52.90 - (34.6)
3800m - 5:28.01 - (35.1)
4200m - 6:03.39 - (35.3)
4600m - 6:39.06 - (35.6)
5000m - 7:14.71 - (35.6)
22.21 45
7 62 Diane  VALKENBURG NED NED 7:14.96200m - 20.48 - (20.4)
600m - 52.94 - (32.4)
1000m - 1:27.12 - (34.1)
1400m - 2:01.26 - (34.1)
1800m - 2:34.93 - (33.6)
2200m - 3:08.57 - (33.6)
2600m - 3:42.46 - (33.8)
3000m - 4:16.57 - (34.1)
3400m - 4:50.75 - (34.1)
3800m - 5:25.06 - (34.3)
4200m - 6:00.06 - (35.0)
4600m - 6:36.39 - (36.3)
5000m - 7:14.96 - (38.5)
22.46 40
8 41 Shiho  ISHIZAWA JPN JPN 7:15.56200m - 20.86 - (20.8)
600m - 52.97 - (32.1)
1000m - 1:26.43 - (33.4)
1400m - 2:00.28 - (33.8)
1800m - 2:34.53 - (34.2)
2200m - 3:09.02 - (34.5)
2600m - 3:43.91 - (34.8)
3000m - 4:18.98 - (35.0)
3400m - 4:54.15 - (35.1)
3800m - 5:29.42 - (35.2)
4200m - 6:04.99 - (35.5)
4600m - 6:40.33 - (35.3)
5000m - 7:15.56 - (35.2)
23.06 35
9 57 Marije  JOLING NED NED 7:16.50200m - 20.69 - (20.6)
600m - 54.76 - (34.0)
1000m - 1:28.38 - (33.6)
1400m - 2:02.12 - (33.7)
1800m - 2:36.04 - (33.9)
2200m - 3:10.10 - (34.0)
2600m - 3:44.26 - (34.1)
3000m - 4:18.59 - (34.3)
3400m - 4:53.42 - (34.8)
3800m - 5:28.78 - (35.3)
4200m - 6:04.03 - (35.2)
4600m - 6:39.72 - (35.6)
5000m - 7:16.50 - (36.7)
24.00 30
10 13 Cindy  KLASSEN CAN CAN 7:19.55200m - 21.20 - (21.2)
600m - 55.62 - (34.4)
1000m - 1:30.20 - (34.5)
1400m - 2:04.02 - (33.8)
1800m - 2:37.65 - (33.6)
2200m - 3:11.57 - (33.9)
2600m - 3:45.64 - (34.0)
3000m - 4:19.76 - (34.1)
3400m - 4:54.55 - (34.7)
3800m - 5:30.16 - (35.6)
4200m - 6:06.20 - (36.0)
4600m - 6:42.61 - (36.4)
5000m - 7:19.55 - (36.9)
27.05 25
11 77 Yevgenia  DMITRIEVA RUS RUS 7:25.60200m - 21.14 - (21.1)
600m - 54.96 - (33.8)
1000m - 1:29.06 - (34.1)
1400m - 2:03.16 - (34.1)
1800m - 2:37.30 - (34.1)
2200m - 3:11.96 - (34.6)
2600m - 3:47.14 - (35.1)
3000m - 4:23.13 - (35.9)
3400m - 4:59.84 - (36.7)
3800m - 5:36.54 - (36.7)
4200m - 6:12.71 - (36.1)
4600m - 6:48.88 - (36.1)
5000m - 7:25.60 - (36.7)
33.10 20
12 71 Ida  NJÅTUN NOR NOR 7:25.95200m - 20.56 - (20.5)
600m - 54.89 - (34.3)
1000m - 1:29.28 - (34.3)
1400m - 2:03.09 - (33.8)
1800m - 2:37.50 - (34.4)
2200m - 3:12.11 - (34.6)
2600m - 3:46.89 - (34.7)
3000m - 4:22.01 - (35.1)
3400m - 4:57.71 - (35.7)
3800m - 5:33.99 - (36.2)
4200m - 6:10.86 - (36.8)
4600m - 6:48.23 - (37.3)
5000m - 7:25.95 - (37.7)
33.45 15